User: anonymous   Login
Location: Carrizo Plain National Monument
(35.0903°N, 119.7316°W)
Time: 18:47:44
(UTC-07:00)
Language:

First-Move - Orbit

View from above orbital plane
View from above orbital plane
View from above satellite
View from above satellite

Ground track
Ground track

The orbit data is extracted from the following two-line orbital elements,

1 39439U 13066Z   20092.94142906  .00000413  00000-0  56417-4 0  9997
2 39439  97.5727  95.6877 0065605 167.1750 193.1152 14.82072106343630
Epoch (UTC): 01 April 2020 22:35:39
Eccentricity: 0.0065605
inclination: 97.5727°
perigee height: 577 km
apogee height: 669 km
right ascension of ascending node: 95.6877°
argument of perigee: 167.1750°
revolutions per day: 14.82072106
mean anomaly at epoch: 193.1152°
orbit number at epoch: 34363

The dashed part of the orbit path shows where the satellite is in the earth's shadow,  

DLR